Location: Bavegemberg
(50.9500°N, 3.8833°E)
Time: 19:51:23
(UTC+00:00)

Geosat - Pass Details

Date: 23 May 2024
Orbit: 760 x 763 km, 108.1° (Epoch: 14 June)

Event Time Altitude Azimuth Distance (km) Brightness Sun altitude
Rises 02:25:10 0° 141° (SE) 3,214 7.1 -9.9°
Reaches altitude 10° 02:27:26 10° 139° (SE) 2,293 6.4 -9.6°
Maximum altitude 02:32:24 73° 56° (NE) 803 4.3 -9.1°
Drops below altitude 10° 02:37:25 10° 333° (NNW) 2,309 6.8 -8.6°
Sets 02:39:43 0° 331° (NNW) 3,240 7.5 -8.4°
